Time,TemperatureF,DewpointF,PressureIn,WindDirection,WindDirectionDegrees,WindSpeedMPH,WindSpeedGustMPH,Humidity,HourlyPrecipIn,Conditions,Clouds,dailyrainin,SoftwareType,DateUTC
2013-07-13 00:00:00,75.6,53.3,29.83,North,0,0.0,0.0,46,0.00,,,0.00,WUHU216HW,2013-07-13 07:00:00,
2013-07-13 00:05:00,74.9,53.8,29.83,ENE,68,0.2,0.2,48,0.00,,,0.00,WUHU216HW,2013-07-13 07:05:00,
2013-07-13 00:10:00,74.2,54.4,29.83,North,0,0.0,0.0,50,0.00,,,0.00,WUHU216HW,2013-07-13 07:10:00,
2013-07-13 00:15:00,73.6,54.4,29.83,North,0,0.0,0.0,51,0.00,,,0.00,WUHU216HW,2013-07-13 07:15:00,
2013-07-13 00:20:00,73.3,54.5,29.83,East,90,0.2,0.2,52,0.00,,,0.00,WUHU216HW,2013-07-13 07:20:00,
2013-07-13 00:25:00,73.1,54.4,29.83,ENE,68,0.2,0.2,52,0.00,,,0.00,WUHU216HW,2013-07-13 07:25:00,
2013-07-13 00:30:00,72.7,54.0,29.83,NNW,338,0.2,0.2,52,0.00,,,0.00,WUHU216HW,2013-07-13 07:30:00,
2013-07-13 00:35:00,72.7,55.0,29.84,North,0,0.0,0.0,54,0.00,,,0.00,WUHU216HW,2013-07-13 07:35:00,
2013-07-13 00:40:00,72.4,54.7,29.84,ESE,113,0.8,0.9,54,0.00,,,0.00,WUHU216HW,2013-07-13 07:40:00,
2013-07-13 00:45:00,71.6,56.1,29.84,SE,131,0.8,1.6,58,0.00,,,0.00,WUHU216HW,2013-07-13 07:45:00,
2013-07-13 00:50:00,71.3,55.3,29.84,North,0,0.0,0.0,57,0.00,,,0.00,WUHU216HW,2013-07-13 07:50:00,
2013-07-13 00:55:00,71.1,54.5,29.84,North,0,0.0,0.0,56,0.00,,,0.00,WUHU216HW,2013-07-13 07:55:00,
2013-07-13 01:00:00,70.9,54.4,29.84,East,92,0.6,1.1,56,0.00,,,0.00,WUHU216HW,2013-07-13 08:00:00,
2013-07-13 01:05:00,70.6,54.5,29.84,North,0,0.0,0.0,57,0.00,,,0.00,WUHU216HW,2013-07-13 08:05:00,
2013-07-13 01:10:00,70.6,54.1,29.84,North,0,0.0,0.0,56,0.00,,,0.00,WUHU216HW,2013-07-13 08:10:00,
2013-07-13 01:15:00,70.2,53.7,29.84,North,0,0.0,0.0,56,0.00,,,0.00,WUHU216HW,2013-07-13 08:15:00,
2013-07-13 01:20:00,70.0,53.6,29.84,North,0,0.0,0.0,56,0.00,,,0.00,WUHU216HW,2013-07-13 08:20:00,
2013-07-13 01:25:00,69.7,53.7,29.84,East,90,0.4,0.4,57,0.00,,,0.00,WUHU216HW,2013-07-13 08:25:00,
2013-07-13 01:30:00,69.5,53.6,29.84,North,0,0.0,0.0,57,0.00,,,0.00,WUHU216HW,2013-07-13 08:30:00,
2013-07-13 01:35:00,69.3,53.4,29.84,North,0,0.0,0.0,57,0.00,,,0.00,WUHU216HW,2013-07-13 08:35:00,
2013-07-13 01:40:00,68.9,53.0,29.85,North,0,0.0,0.0,57,0.00,,,0.00,WUHU216HW,2013-07-13 08:40:00,
2013-07-13 01:45:00,68.6,53.2,29.85,North,0,0.0,0.0,58,0.00,,,0.00,WUHU216HW,2013-07-13 08:45:00,
2013-07-13 01:50:00,68.6,53.2,29.85,North,0,0.0,0.0,58,0.00,,,0.00,WUHU216HW,2013-07-13 08:50:00,
2013-07-13 01:55:00,68.4,53.0,29.85,North,0,0.0,0.0,58,0.00,,,0.00,WUHU216HW,2013-07-13 08:55:00,
2013-07-13 02:00:00,68.2,52.8,29.85,North,0,0.0,0.0,58,0.00,,,0.00,WUHU216HW,2013-07-13 09:00:00,
2013-07-13 02:05:00,68.0,52.7,29.85,North,0,0.0,0.0,58,0.00,,,0.00,WUHU216HW,2013-07-13 09:05:00,
2013-07-13 02:10:00,67.9,52.5,29.85,North,0,0.0,0.0,58,0.00,,,0.00,WUHU216HW,2013-07-13 09:10:00,
2013-07-13 02:15:00,68.0,53.2,29.85,North,0,0.0,0.0,59,0.00,,,0.00,WUHU216HW,2013-07-13 09:15:00,
2013-07-13 02:20:00,68.0,53.2,29.85,North,0,0.0,0.0,59,0.00,,,0.00,WUHU216HW,2013-07-13 09:20:00,
2013-07-13 02:25:00,68.0,53.2,29.84,North,0,0.0,0.0,59,0.00,,,0.00,WUHU216HW,2013-07-13 09:25:00,
2013-07-13 02:30:00,68.0,52.7,29.85,North,0,0.0,0.0,58,0.00,,,0.00,WUHU216HW,2013-07-13 09:30:00,
2013-07-13 02:36:00,67.7,52.4,29.85,North,0,0.0,0.0,58,0.00,,,0.00,WUHU216HW,2013-07-13 09:36:00,
2013-07-13 02:41:00,67.7,52.8,29.85,North,0,0.0,0.0,59,0.00,,,0.00,WUHU216HW,2013-07-13 09:41:00,
2013-07-13 02:46:00,67.7,52.8,29.85,North,0,0.0,0.0,59,0.00,,,0.00,WUHU216HW,2013-07-13 09:46:00,
2013-07-13 02:51:00,67.5,53.2,29.85,North,0,0.0,0.0,60,0.00,,,0.00,WUHU216HW,2013-07-13 09:51:00,
2013-07-13 02:56:00,67.3,53.0,29.85,North,0,0.0,0.0,60,0.00,,,0.00,WUHU216HW,2013-07-13 09:56:00,
2013-07-13 03:01:00,67.3,53.0,29.85,North,0,0.0,0.0,60,0.00,,,0.00,WUHU216HW,2013-07-13 10:01:00,
2013-07-13 03:06:00,67.1,52.8,29.85,North,0,0.0,0.0,60,0.00,,,0.00,WUHU216HW,2013-07-13 10:06:00,
2013-07-13 03:11:00,67.1,53.3,29.86,North,0,0.0,0.0,61,0.00,,,0.00,WUHU216HW,2013-07-13 10:11:00,
2013-07-13 03:16:00,67.0,53.1,29.86,North,0,0.0,0.0,61,0.00,,,0.00,WUHU216HW,2013-07-13 10:16:00,
2013-07-13 03:21:00,67.0,53.1,29.86,North,0,0.0,0.0,61,0.00,,,0.00,WUHU216HW,2013-07-13 10:21:00,
2013-07-13 03:26:00,66.8,52.9,29.86,North,0,0.0,0.0,61,0.00,,,0.00,WUHU216HW,2013-07-13 10:26:00,
2013-07-13 03:31:00,66.6,53.2,29.86,North,0,0.0,0.0,62,0.00,,,0.00,WUHU216HW,2013-07-13 10:31:00,
2013-07-13 03:36:00,66.4,53.0,29.86,North,0,0.0,0.0,62,0.00,,,0.00,WUHU216HW,2013-07-13 10:36:00,
2013-07-13 03:41:00,66.4,53.0,29.86,North,0,0.0,0.0,62,0.00,,,0.00,WUHU216HW,2013-07-13 10:41:00,
2013-07-13 03:46:00,66.2,52.8,29.86,North,0,0.0,0.0,62,0.00,,,0.00,WUHU216HW,2013-07-13 10:46:00,
2013-07-13 03:51:00,66.2,52.8,29.86,North,0,0.0,0.0,62,0.00,,,0.00,WUHU216HW,2013-07-13 10:51:00,
2013-07-13 03:56:00,66.4,53.0,29.86,North,0,0.0,0.0,62,0.00,,,0.00,WUHU216HW,2013-07-13 10:56:00,
2013-07-13 04:01:00,66.2,52.8,29.86,North,0,0.0,0.0,62,0.00,,,0.00,WUHU216HW,2013-07-13 11:01:00,
2013-07-13 04:06:00,66.2,52.8,29.86,North,0,0.0,0.0,62,0.00,,,0.00,WUHU216HW,2013-07-13 11:06:00,
2013-07-13 04:11:00,66.1,52.7,29.86,North,0,0.0,0.0,62,0.00,,,0.00,WUHU216HW,2013-07-13 11:11:00,
2013-07-13 04:16:00,65.9,52.9,29.86,North,0,0.0,0.0,63,0.00,,,0.00,WUHU216HW,2013-07-13 11:16:00,
2013-07-13 04:21:00,65.9,52.9,29.86,North,0,0.0,0.0,63,0.00,,,0.00,WUHU216HW,2013-07-13 11:21:00,
2013-07-13 04:26:00,65.9,52.9,29.86,North,0,0.0,0.0,63,0.00,,,0.00,WUHU216HW,2013-07-13 11:26:00,
2013-07-13 04:31:00,65.7,52.8,29.87,North,0,0.0,0.0,63,0.00,,,0.00,WUHU216HW,2013-07-13 11:31:00,
2013-07-13 04:36:00,65.7,52.8,29.87,North,0,0.0,0.0,63,0.00,,,0.00,WUHU216HW,2013-07-13 11:36:00,
2013-07-13 04:41:00,65.5,52.6,29.87,North,0,0.0,0.0,63,0.00,,,0.00,WUHU216HW,2013-07-13 11:41:00,
2013-07-13 04:46:00,65.5,52.6,29.87,North,0,0.0,0.0,63,0.00,,,0.00,WUHU216HW,2013-07-13 11:46:00,
2013-07-13 04:51:00,65.5,52.6,29.87,North,0,0.0,0.0,63,0.00,,,0.00,WUHU216HW,2013-07-13 11:51:00,
2013-07-13 04:56:00,65.3,52.4,29.87,SE,127,0.3,0.4,63,0.00,,,0.00,WUHU216HW,2013-07-13 11:56:00,
2013-07-13 05:01:00,65.5,52.6,29.87,ESE,116,0.4,0.7,63,0.00,,,0.00,WUHU216HW,2013-07-13 12:01:00,
2013-07-13 05:06:00,65.7,52.3,29.87,ESE,122,0.4,1.1,62,0.00,,,0.00,WUHU216HW,2013-07-13 12:06:00,
2013-07-13 05:11:00,65.9,52.5,29.87,SE,131,0.5,1.1,62,0.00,,,0.00,WUHU216HW,2013-07-13 12:11:00,
2013-07-13 05:16:00,65.9,52.1,29.87,ESE,113,0.5,1.1,61,0.00,,,0.00,WUHU216HW,2013-07-13 12:16:00,
2013-07-13 05:21:00,65.9,52.5,29.87,SE,125,0.4,1.1,62,0.00,,,0.00,WUHU216HW,2013-07-13 12:21:00,
2013-07-13 05:26:00,65.9,52.5,29.87,SE,137,0.6,1.1,62,0.00,,,0.00,WUHU216HW,2013-07-13 12:26:00,
2013-07-13 05:31:00,65.7,52.3,29.87,ESE,113,0.3,0.4,62,0.00,,,0.00,WUHU216HW,2013-07-13 12:31:00,
2013-07-13 05:36:00,65.5,52.1,29.87,North,0,0.0,0.0,62,0.00,,,0.00,WUHU216HW,2013-07-13 12:36:00,
2013-07-13 05:41:00,65.3,51.9,29.87,North,0,0.0,0.0,62,0.00,,,0.00,WUHU216HW,2013-07-13 12:41:00,
2013-07-13 05:46:00,65.3,51.9,29.87,North,0,0.0,0.0,62,0.00,,,0.00,WUHU216HW,2013-07-13 12:46:00,
2013-07-13 05:51:00,65.5,52.1,29.87,North,0,0.0,0.0,62,0.00,,,0.00,WUHU216HW,2013-07-13 12:51:00,
2013-07-13 05:56:00,65.5,51.8,29.87,North,0,0.0,0.0,61,0.00,,,0.00,WUHU216HW,2013-07-13 12:56:00,
2013-07-13 06:01:00,65.5,51.8,29.88,North,0,0.0,0.0,61,0.00,,,0.00,WUHU216HW,2013-07-13 13:01:00,
2013-07-13 06:06:00,65.5,51.8,29.88,North,0,0.0,0.0,61,0.00,,,0.00,WUHU216HW,2013-07-13 13:06:00,
2013-07-13 06:11:00,65.7,51.9,29.88,North,0,0.0,0.0,61,0.00,,,0.00,WUHU216HW,2013-07-13 13:11:00,
2013-07-13 06:16:00,65.9,52.1,29.88,North,0,0.0,0.0,61,0.00,,,0.00,WUHU216HW,2013-07-13 13:16:00,
2013-07-13 06:21:00,66.1,52.3,29.88,North,0,0.0,0.0,61,0.00,,,0.00,WUHU216HW,2013-07-13 13:21:00,
2013-07-13 06:26:00,66.4,52.6,29.88,SE,145,0.2,0.4,61,0.00,,,0.00,WUHU216HW,2013-07-13 13:26:00,
2013-07-13 06:31:00,66.8,52.9,29.89,SE,135,0.2,0.2,61,0.00,,,0.00,WUHU216HW,2013-07-13 13:31:00,
2013-07-13 06:36:00,67.1,52.8,29.89,SE,135,0.3,0.4,60,0.00,,,0.00,WUHU216HW,2013-07-13 13:36:00,
2013-07-13 06:41:00,67.5,53.2,29.89,North,0,0.0,0.0,60,0.00,,,0.00,WUHU216HW,2013-07-13 13:41:00,
2013-07-13 06:46:00,67.9,53.5,29.89,North,0,0.0,0.0,60,0.00,,,0.00,WUHU216HW,2013-07-13 13:46:00,
2013-07-13 06:51:00,68.4,54.0,29.89,SE,124,0.3,0.4,60,0.00,,,0.00,WUHU216HW,2013-07-13 13:51:00,
2013-07-13 06:56:00,68.8,53.9,29.89,ESE,108,0.4,1.1,59,0.00,,,0.00,WUHU216HW,2013-07-13 13:56:00,
2013-07-13 07:01:00,69.5,54.1,29.90,East,96,0.3,0.4,58,0.00,,,0.00,WUHU216HW,2013-07-13 14:01:00,
2013-07-13 07:06:00,69.8,53.9,29.90,ESE,113,0.7,1.1,57,0.00,,,0.00,WUHU216HW,2013-07-13 14:06:00,
2013-07-13 07:11:00,70.2,53.7,29.90,SE,134,0.6,1.3,56,0.00,,,0.00,WUHU216HW,2013-07-13 14:11:00,
2013-07-13 07:16:00,70.4,53.9,29.90,ESE,109,0.7,1.3,56,0.00,,,0.00,WUHU216HW,2013-07-13 14:16:00,
2013-07-13 07:21:00,70.7,54.7,29.90,SE,138,0.5,1.3,57,0.00,,,0.00,WUHU216HW,2013-07-13 14:21:00,
2013-07-13 07:26:00,71.3,55.3,29.90,ESE,121,1.3,2.2,57,0.00,,,0.00,WUHU216HW,2013-07-13 14:26:00,
2013-07-13 07:31:00,71.5,54.9,29.90,SE,134,1.1,2.7,56,0.00,,,0.00,WUHU216HW,2013-07-13 14:31:00,
2013-07-13 07:36:00,72.0,55.4,29.90,ESE,122,1.0,2.0,56,0.00,,,0.00,WUHU216HW,2013-07-13 14:36:00,
2013-07-13 07:41:00,72.2,55.5,29.90,SE,127,1.2,2.5,56,0.00,,,0.00,WUHU216HW,2013-07-13 14:41:00,
2013-07-13 07:46:00,72.7,56.0,29.90,SE,126,1.1,2.0,56,0.00,,,0.00,WUHU216HW,2013-07-13 14:46:00,
2013-07-13 07:51:00,73.3,56.0,29.90,SE,136,0.9,1.8,55,0.00,,,0.00,WUHU216HW,2013-07-13 14:51:00,
2013-07-13 07:56:00,73.6,56.3,29.90,SE,126,1.0,1.8,55,0.00,,,0.00,WUHU216HW,2013-07-13 14:56:00,
2013-07-13 08:01:00,74.2,56.3,29.90,ESE,123,1.4,2.0,54,0.00,,,0.00,WUHU216HW,2013-07-13 15:01:00,
2013-07-13 08:06:00,74.5,56.3,29.90,SE,126,1.7,2.9,53,0.00,,,0.00,WUHU216HW,2013-07-13 15:06:00,
2013-07-13 08:11:00,74.9,56.1,29.90,SE,136,1.8,3.1,52,0.00,,,0.00,WUHU216HW,2013-07-13 15:11:00,
2013-07-13 08:16:00,75.2,56.4,29.91,SE,141,1.9,2.7,52,0.00,,,0.00,WUHU216HW,2013-07-13 15:16:00,
2013-07-13 08:21:00,75.6,56.3,29.91,SSE,156,2.1,3.1,51,0.00,,,0.00,WUHU216HW,2013-07-13 15:21:00,
2013-07-13 08:26:00,76.0,56.6,29.91,SE,142,2.0,3.8,51,0.00,,,0.00,WUHU216HW,2013-07-13 15:26:00,
2013-07-13 08:31:00,76.5,56.6,29.91,SSE,148,1.7,2.9,50,0.00,,,0.00,WUHU216HW,2013-07-13 15:31:00,
2013-07-13 08:36:00,77.2,57.3,29.91,SE,134,2.0,2.7,50,0.00,,,0.00,WUHU216HW,2013-07-13 15:36:00,
2013-07-13 08:41:00,77.8,57.1,29.91,SSE,156,2.3,3.4,49,0.00,,,0.00,WUHU216HW,2013-07-13 15:41:00,
2013-07-13 08:46:00,78.3,56.3,29.91,SSE,149,2.6,3.8,47,0.00,,,0.00,WUHU216HW,2013-07-13 15:46:00,
2013-07-13 08:51:00,78.7,56.1,29.91,SSE,155,2.1,3.1,46,0.00,,,0.00,WUHU216HW,2013-07-13 15:51:00,
2013-07-13 08:56:00,79.0,56.4,29.91,SSE,155,2.3,3.4,46,0.00,,,0.00,WUHU216HW,2013-07-13 15:56:00,
2013-07-13 09:01:00,79.6,56.9,29.91,SE,132,1.9,2.9,46,0.00,,,0.00,WUHU216HW,2013-07-13 16:01:00,
2013-07-13 09:06:00,80.3,56.4,29.91,SE,131,2.5,3.4,44,0.00,,,0.00,WUHU216HW,2013-07-13 16:06:00,
2013-07-13 09:11:00,81.0,57.0,29.91,SE,134,2.4,3.6,44,0.00,,,0.00,WUHU216HW,2013-07-13 16:11:00,
2013-07-13 09:16:00,81.5,56.3,29.90,SE,131,2.2,3.8,42,0.00,,,0.00,WUHU216HW,2013-07-13 16:16:00,
2013-07-13 09:21:00,81.7,54.4,29.91,SSE,167,3.1,4.7,39,0.00,,,0.00,WUHU216HW,2013-07-13 16:21:00,
2013-07-13 09:26:00,82.1,55.4,29.91,SSE,162,3.1,4.7,40,0.00,,,0.00,WUHU216HW,2013-07-13 16:26:00,
2013-07-13 09:31:00,82.8,56.2,29.91,SSE,167,2.9,4.7,40,0.00,,,0.00,WUHU216HW,2013-07-13 16:31:00,
2013-07-13 09:36:00,83.3,56.6,29.91,South,182,2.8,4.0,40,0.00,,,0.00,WUHU216HW,2013-07-13 16:36:00,
2013-07-13 09:41:00,83.7,56.2,29.91,South,173,3.0,5.1,39,0.00,,,0.00,WUHU216HW,2013-07-13 16:41:00,
2013-07-13 09:46:00,83.9,56.4,29.90,SSE,165,2.3,4.0,39,0.00,,,0.00,WUHU216HW,2013-07-13 16:46:00,
2013-07-13 09:51:00,84.4,56.8,29.90,South,183,2.6,4.0,39,0.00,,,0.00,WUHU216HW,2013-07-13 16:51:00,
2013-07-13 09:56:00,85.0,56.5,29.90,SSE,166,3.2,4.7,38,0.00,,,0.00,WUHU216HW,2013-07-13 16:56:00,
2013-07-13 10:01:00,85.0,56.5,29.90,South,190,2.4,4.5,38,0.00,,,0.00,WUHU216HW,2013-07-13 17:01:00,
2013-07-13 10:06:00,85.5,57.0,29.90,SSE,165,2.3,4.3,38,0.00,,,0.00,WUHU216HW,2013-07-13 17:06:00,
2013-07-13 10:11:00,85.9,57.3,29.90,South,182,2.5,4.3,38,0.00,,,0.00,WUHU216HW,2013-07-13 17:11:00,
2013-07-13 10:16:00,86.6,57.2,29.90,SSE,160,2.3,3.6,37,0.00,,,0.00,WUHU216HW,2013-07-13 17:16:00,
2013-07-13 10:21:00,86.8,57.3,29.90,South,179,2.1,3.8,37,0.00,,,0.00,WUHU216HW,2013-07-13 17:21:00,
2013-07-13 10:26:00,87.1,58.4,29.90,SW,216,2.2,4.0,38,0.00,,,0.00,WUHU216HW,2013-07-13 17:26:00,
2013-07-13 10:31:00,87.5,57.2,29.90,South,182,2.0,4.0,36,0.00,,,0.00,WUHU216HW,2013-07-13 17:31:00,
2013-07-13 10:36:00,87.8,57.4,29.90,South,191,2.2,4.0,36,0.00,,,0.00,WUHU216HW,2013-07-13 17:36:00,
2013-07-13 10:41:00,88.2,56.1,29.90,SSE,166,1.8,4.3,34,0.00,,,0.00,WUHU216HW,2013-07-13 17:41:00,
2013-07-13 10:46:00,88.6,57.3,29.90,SSW,207,2.2,3.1,35,0.00,,,0.00,WUHU216HW,2013-07-13 17:46:00,
2013-07-13 10:51:00,88.9,57.5,29.90,SSW,198,2.2,3.6,35,0.00,,,0.00,WUHU216HW,2013-07-13 17:51:00,
2013-07-13 10:56:00,89.5,58.8,29.90,South,184,1.7,2.9,36,0.00,,,0.00,WUHU216HW,2013-07-13 17:56:00,
2013-07-13 11:01:00,89.8,57.5,29.90,SSE,166,2.6,4.0,34,0.00,,,0.00,WUHU216HW,2013-07-13 18:01:00,
2013-07-13 11:06:00,89.8,58.3,29.90,South,169,2.0,3.8,35,0.00,,,0.00,WUHU216HW,2013-07-13 18:06:00,
2013-07-13 11:11:00,90.2,57.1,29.90,South,172,2.9,4.3,33,0.00,,,0.00,WUHU216HW,2013-07-13 18:11:00,
2013-07-13 11:16:00,90.5,57.3,29.90,SSW,205,2.3,4.5,33,0.00,,,0.00,WUHU216HW,2013-07-13 18:16:00,
2013-07-13 11:21:00,91.1,58.7,29.90,South,186,2.4,4.0,34,0.00,,,0.00,WUHU216HW,2013-07-13 18:21:00,
2013-07-13 11:26:00,91.4,59.0,29.90,SSE,158,2.4,3.6,34,0.00,,,0.00,WUHU216HW,2013-07-13 18:26:00,
2013-07-13 11:31:00,92.3,58.2,29.90,South,171,2.3,4.0,32,0.00,,,0.00,WUHU216HW,2013-07-13 18:31:00,
2013-07-13 11:36:00,92.7,58.4,29.90,SSW,193,2.7,4.5,32,0.00,,,0.00,WUHU216HW,2013-07-13 18:36:00,
2013-07-13 11:41:00,92.9,58.6,29.90,South,176,2.3,4.7,32,0.00,,,0.00,WUHU216HW,2013-07-13 18:41:00,
2013-07-13 11:46:00,93.1,57.9,29.90,South,182,2.8,4.7,31,0.00,,,0.00,WUHU216HW,2013-07-13 18:46:00,
2013-07-13 11:51:00,93.6,59.2,29.90,SSE,165,2.3,3.4,32,0.00,,,0.00,WUHU216HW,2013-07-13 18:51:00,
2013-07-13 11:56:00,93.6,57.6,29.90,SW,231,2.4,4.0,30,0.00,,,0.00,WUHU216HW,2013-07-13 18:56:00,
2013-07-13 12:01:00,93.2,58.1,29.90,WSW,256,2.9,4.0,31,0.00,,,0.00,WUHU216HW,2013-07-13 19:01:00,
2013-07-13 12:06:00,93.4,57.4,29.90,SSW,198,2.4,4.0,30,0.00,,,0.00,WUHU216HW,2013-07-13 19:06:00,
2013-07-13 12:11:00,94.0,56.8,29.89,SSW,208,2.9,4.9,29,0.00,,,0.00,WUHU216HW,2013-07-13 19:11:00,
2013-07-13 12:16:00,94.5,57.2,29.89,South,172,2.0,4.7,29,0.00,,,0.00,WUHU216HW,2013-07-13 19:16:00,
2013-07-13 12:21:00,95.0,55.5,29.89,West,266,1.7,3.8,27,0.00,,,0.00,WUHU216HW,2013-07-13 19:21:00,
2013-07-13 12:26:00,95.2,54.5,29.89,SW,217,2.8,5.4,26,0.00,,,0.00,WUHU216HW,2013-07-13 19:26:00,
2013-07-13 12:31:00,95.0,55.5,29.89,West,267,2.3,4.5,27,0.00,,,0.00,WUHU216HW,2013-07-13 19:31:00,
2013-07-13 12:36:00,95.0,55.5,29.89,SW,230,1.6,3.6,27,0.00,,,0.00,WUHU216HW,2013-07-13 19:36:00,
2013-07-13 12:41:00,95.2,54.5,29.89,SW,215,2.1,4.0,26,0.00,,,0.00,WUHU216HW,2013-07-13 19:41:00,
2013-07-13 12:46:00,95.8,56.1,29.88,South,175,2.2,4.7,27,0.00,,,0.00,WUHU216HW,2013-07-13 19:46:00,
2013-07-13 12:51:00,96.3,54.4,29.88,SW,228,2.0,2.7,25,0.00,,,0.00,WUHU216HW,2013-07-13 19:51:00,
2013-07-13 12:56:00,96.5,53.4,29.88,West,270,2.1,4.0,24,0.00,,,0.00,WUHU216HW,2013-07-13 19:56:00,
2013-07-13 13:01:00,96.3,54.4,29.88,WNW,292,2.7,4.3,25,0.00,,,0.00,WUHU216HW,2013-07-13 20:01:00,
2013-07-13 13:06:00,96.5,53.4,29.88,West,267,2.4,4.7,24,0.00,,,0.00,WUHU216HW,2013-07-13 20:06:00,
2013-07-13 13:11:00,97.0,52.7,29.88,SW,231,2.2,5.1,23,0.00,,,0.00,WUHU216HW,2013-07-13 20:11:00,
2013-07-13 13:16:00,97.6,54.4,29.88,West,260,1.7,4.0,24,0.00,,,0.00,WUHU216HW,2013-07-13 20:16:00,
2013-07-13 13:21:00,97.4,53.1,29.88,WNW,292,2.5,3.4,23,0.00,,,0.00,WUHU216HW,2013-07-13 20:21:00,
2013-07-13 13:26:00,97.6,54.4,29.87,WNW,283,2.6,4.5,24,0.00,,,0.00,WUHU216HW,2013-07-13 20:26:00,
2013-07-13 13:31:00,98.1,53.6,29.87,SSW,212,2.0,3.4,23,0.00,,,0.00,WUHU216HW,2013-07-13 20:31:00,
2013-07-13 13:36:00,98.1,53.6,29.87,WNW,295,3.4,5.4,23,0.00,,,0.00,WUHU216HW,2013-07-13 20:36:00,
2013-07-13 13:41:00,98.3,54.9,29.87,WSW,253,1.8,4.0,24,0.00,,,0.00,WUHU216HW,2013-07-13 20:41:00,
2013-07-13 13:46:00,98.5,52.8,29.87,WSW,256,2.4,4.7,22,0.00,,,0.00,WUHU216HW,2013-07-13 20:46:00,
2013-07-13 13:51:00,98.8,55.4,29.87,South,171,1.4,4.0,24,0.00,,,0.00,WUHU216HW,2013-07-13 20:51:00,
2013-07-13 13:56:00,99.2,55.7,29.87,West,269,1.5,3.4,24,0.00,,,0.00,WUHU216HW,2013-07-13 20:56:00,
2013-07-13 14:01:00,99.5,57.2,29.86,West,275,3.4,5.4,25,0.00,,,0.00,WUHU216HW,2013-07-13 21:01:00,
2013-07-13 14:06:00,99.7,57.2,29.86,WNW,283,2.8,4.0,25,0.00,,,0.00,WUHU216HW,2013-07-13 21:06:00,
2013-07-13 14:11:00,99.7,57.2,29.86,WNW,294,2.5,6.5,25,0.00,,,0.00,WUHU216HW,2013-07-13 21:11:00,
2013-07-13 14:16:00,99.7,56.2,29.86,NNW,327,2.1,4.9,24,0.00,,,0.00,WUHU216HW,2013-07-13 21:16:00,
2013-07-13 14:21:00,99.4,54.7,29.86,WNW,303,2.5,4.7,23,0.00,,,0.00,WUHU216HW,2013-07-13 21:21:00,
2013-07-13 14:26:00,99.5,54.8,29.86,NW,311,2.8,5.4,23,0.00,,,0.00,WUHU216HW,2013-07-13 21:26:00,
2013-07-13 14:31:00,99.7,55.0,29.86,WNW,287,1.7,4.0,23,0.00,,,0.00,WUHU216HW,2013-07-13 21:31:00,
2013-07-13 14:36:00,99.9,54.0,29.85,WNW,287,3.4,5.4,22,0.00,,,0.00,WUHU216HW,2013-07-13 21:36:00,
2013-07-13 14:41:00,100.4,52.2,29.85,WSW,256,2.4,4.5,20,0.00,,,0.00,WUHU216HW,2013-07-13 21:41:00,
2013-07-13 14:46:00,100.6,52.4,29.85,West,269,3.2,5.4,20,0.00,,,0.00,WUHU216HW,2013-07-13 21:46:00,
2013-07-13 14:51:00,100.6,53.5,29.85,SW,220,2.7,4.7,21,0.00,,,0.00,WUHU216HW,2013-07-13 21:51:00,
2013-07-13 14:56:00,100.8,54.7,29.85,West,277,3.4,6.5,22,0.00,,,0.00,WUHU216HW,2013-07-13 21:56:00,
2013-07-13 15:01:00,100.8,54.7,29.85,West,272,3.1,6.3,22,0.00,,,0.00,WUHU216HW,2013-07-13 22:01:00,
2013-07-13 15:06:00,101.0,54.9,29.84,WNW,288,2.8,4.9,22,0.00,,,0.00,WUHU216HW,2013-07-13 22:06:00,
2013-07-13 15:11:00,101.5,55.4,29.84,West,268,2.3,4.0,22,0.00,,,0.00,WUHU216HW,2013-07-13 22:11:00,
2013-07-13 15:16:00,101.7,55.4,29.84,WNW,294,2.5,4.7,22,0.00,,,0.00,WUHU216HW,2013-07-13 22:16:00,
2013-07-13 15:21:00,101.9,55.6,29.84,WNW,287,3.2,6.5,22,0.00,,,0.00,WUHU216HW,2013-07-13 22:21:00,
2013-07-13 15:26:00,101.7,55.4,29.83,WNW,284,4.0,7.8,22,0.00,,,0.00,WUHU216HW,2013-07-13 22:26:00,
2013-07-13 15:31:00,101.5,55.4,29.83,WNW,292,3.4,6.7,22,0.00,,,0.00,WUHU216HW,2013-07-13 22:31:00,
2013-07-13 15:36:00,101.5,55.4,29.83,WNW,302,3.4,6.0,22,0.00,,,0.00,WUHU216HW,2013-07-13 22:36:00,
2013-07-13 15:41:00,101.5,55.4,29.83,WNW,300,3.0,6.7,22,0.00,,,0.00,WUHU216HW,2013-07-13 22:41:00,
2013-07-13 15:47:00,101.3,55.2,29.83,WNW,299,4.3,7.4,22,0.00,,,0.00,WUHU216HW,2013-07-13 22:47:00,
2013-07-13 15:52:00,101.0,54.9,29.83,NNW,331,2.2,5.6,22,0.00,,,0.00,WUHU216HW,2013-07-13 22:52:00,
2013-07-13 15:57:00,101.3,55.2,29.82,WNW,294,3.7,5.4,22,0.00,,,0.00,WUHU216HW,2013-07-13 22:57:00,
2013-07-13 16:02:00,101.5,55.4,29.82,NW,319,2.3,4.3,22,0.00,,,0.00,WUHU216HW,2013-07-13 23:02:00,
2013-07-13 16:07:00,101.7,53.2,29.82,NW,314,3.1,7.4,20,0.00,,,0.00,WUHU216HW,2013-07-13 23:07:00,
2013-07-13 16:12:00,101.5,53.1,29.82,NW,309,3.3,6.7,20,0.00,,,0.00,WUHU216HW,2013-07-13 23:12:00,
2013-07-13 16:17:00,101.3,52.9,29.82,NW,307,3.4,6.7,20,0.00,,,0.00,WUHU216HW,2013-07-13 23:17:00,
2013-07-13 16:22:00,101.3,55.2,29.82,NW,322,3.2,6.7,22,0.00,,,0.00,WUHU216HW,2013-07-13 23:22:00,
2013-07-13 16:27:00,101.3,52.9,29.82,NW,306,2.5,4.7,20,0.00,,,0.00,WUHU216HW,2013-07-13 23:27:00,
2013-07-13 16:32:00,101.2,55.1,29.82,NW,309,4.3,6.5,22,0.00,,,0.00,WUHU216HW,2013-07-13 23:32:00,
2013-07-13 16:37:00,101.2,55.1,29.82,NW,313,3.9,6.5,22,0.00,,,0.00,WUHU216HW,2013-07-13 23:37:00,
2013-07-13 16:42:00,101.2,55.1,29.82,NW,326,2.7,4.5,22,0.00,,,0.00,WUHU216HW,2013-07-13 23:42:00,
2013-07-13 16:47:00,101.0,54.9,29.82,NW,323,2.5,4.0,22,0.00,,,0.00,WUHU216HW,2013-07-13 23:47:00,
2013-07-13 16:52:00,101.0,54.9,29.81,WNW,293,4.3,6.7,22,0.00,,,0.00,WUHU216HW,2013-07-13 23:52:00,
2013-07-13 16:57:00,101.0,54.9,29.81,WNW,300,3.3,4.5,22,0.00,,,0.00,WUHU216HW,2013-07-13 23:57:00,
2013-07-13 17:02:00,101.2,55.1,29.81,NW,314,2.8,6.5,22,0.00,,,0.00,WUHU216HW,2013-07-14 00:02:00,
2013-07-13 17:07:00,101.0,54.9,29.81,WNW,302,3.3,5.8,22,0.00,,,0.00,WUHU216HW,2013-07-14 00:07:00,
2013-07-13 17:12:00,100.8,54.7,29.81,NW,320,2.8,5.1,22,0.00,,,0.00,WUHU216HW,2013-07-14 00:12:00,
2013-07-13 17:17:00,101.0,53.7,29.80,NW,320,2.9,5.4,21,0.00,,,0.00,WUHU216HW,2013-07-14 00:17:00,
2013-07-13 17:22:00,101.0,53.7,29.80,NW,316,2.9,4.7,21,0.00,,,0.00,WUHU216HW,2013-07-14 00:22:00,
2013-07-13 17:27:00,101.0,52.7,29.80,WNW,301,3.5,5.4,20,0.00,,,0.00,WUHU216HW,2013-07-14 00:27:00,
2013-07-13 17:32:00,101.2,52.7,29.80,WNW,297,3.6,5.4,20,0.00,,,0.00,WUHU216HW,2013-07-14 00:32:00,
2013-07-13 17:37:00,101.2,52.7,29.80,NW,309,3.7,5.8,20,0.00,,,0.00,WUHU216HW,2013-07-14 00:37:00,
2013-07-13 17:42:00,101.2,52.7,29.79,NW,308,3.2,4.7,20,0.00,,,0.00,WUHU216HW,2013-07-14 00:42:00,
2013-07-13 17:47:00,101.0,52.7,29.80,NW,304,3.6,5.4,20,0.00,,,0.00,WUHU216HW,2013-07-14 00:47:00,
2013-07-13 17:52:00,101.2,50.9,29.80,WNW,288,3.6,6.3,19,0.00,,,0.00,WUHU216HW,2013-07-14 00:52:00,
2013-07-13 17:57:00,101.2,52.7,29.80,WNW,291,3.1,4.7,20,0.00,,,0.00,WUHU216HW,2013-07-14 00:57:00,
2013-07-13 18:02:00,101.0,52.7,29.80,NW,306,3.1,4.7,20,0.00,,,0.00,WUHU216HW,2013-07-14 01:02:00,
2013-07-13 18:07:00,100.8,50.7,29.80,NW,306,2.4,3.8,19,0.00,,,0.00,WUHU216HW,2013-07-14 01:07:00,
2013-07-13 18:12:00,100.6,52.4,29.80,NW,316,1.9,4.7,20,0.00,,,0.00,WUHU216HW,2013-07-14 01:12:00,
2013-07-13 18:17:00,100.3,52.0,29.80,NW,310,3.4,4.7,20,0.00,,,0.00,WUHU216HW,2013-07-14 01:17:00,
2013-07-13 18:22:00,99.9,52.9,29.80,NW,321,1.4,3.4,21,0.00,,,0.00,WUHU216HW,2013-07-14 01:22:00,
2013-07-13 18:27:00,99.4,52.5,29.80,NNW,336,0.9,2.2,21,0.00,,,0.00,WUHU216HW,2013-07-14 01:27:00,
2013-07-13 18:32:00,99.2,53.5,29.80,NW,323,1.7,3.4,22,0.00,,,0.00,WUHU216HW,2013-07-14 01:32:00,
2013-07-13 18:37:00,99.0,53.3,29.80,NNW,333,1.5,3.4,22,0.00,,,0.00,WUHU216HW,2013-07-14 01:37:00,
2013-07-13 18:42:00,98.6,53.0,29.80,NW,321,1.0,2.0,22,0.00,,,0.00,WUHU216HW,2013-07-14 01:42:00,
2013-07-13 18:47:00,98.3,52.8,29.80,NNW,327,0.9,2.2,22,0.00,,,0.00,WUHU216HW,2013-07-14 01:47:00,
2013-07-13 18:52:00,98.1,52.6,29.80,NNW,332,1.0,1.8,22,0.00,,,0.00,WUHU216HW,2013-07-14 01:52:00,
2013-07-13 18:57:00,97.9,52.4,29.80,NW,324,1.3,3.4,22,0.00,,,0.00,WUHU216HW,2013-07-14 01:57:00,
2013-07-13 19:02:00,97.6,53.2,29.80,NNW,331,1.0,2.5,23,0.00,,,0.00,WUHU216HW,2013-07-14 02:02:00,
2013-07-13 19:07:00,97.2,52.9,29.80,NNW,340,0.6,1.3,23,0.00,,,0.00,WUHU216HW,2013-07-14 02:07:00,
2013-07-13 19:12:00,96.8,52.7,29.80,NNW,337,0.6,1.1,23,0.00,,,0.00,WUHU216HW,2013-07-14 02:12:00,
2013-07-13 19:17:00,96.5,52.3,29.80,NNW,329,0.9,1.8,23,0.00,,,0.00,WUHU216HW,2013-07-14 02:17:00,
2013-07-13 19:22:00,96.1,52.0,29.80,NW,324,0.6,1.3,23,0.00,,,0.00,WUHU216HW,2013-07-14 02:22:00,
2013-07-13 19:27:00,95.8,51.7,29.80,NNW,329,0.7,1.1,23,0.00,,,0.00,WUHU216HW,2013-07-14 02:27:00,
2013-07-13 19:32:00,95.2,51.2,29.80,NNW,339,0.5,0.9,23,0.00,,,0.00,WUHU216HW,2013-07-14 02:32:00,
2013-07-13 19:37:00,95.0,52.2,29.80,NNW,342,0.4,1.1,24,0.00,,,0.00,WUHU216HW,2013-07-14 02:37:00,
2013-07-13 19:42:00,94.7,53.0,29.80,NNW,342,0.4,0.9,25,0.00,,,0.00,WUHU216HW,2013-07-14 02:42:00,
2013-07-13 19:47:00,94.1,53.7,29.80,North,351,0.3,0.4,26,0.00,,,0.00,WUHU216HW,2013-07-14 02:47:00,
2013-07-13 19:52:00,93.6,53.2,29.81,NNW,338,0.3,0.4,26,0.00,,,0.00,WUHU216HW,2013-07-14 02:52:00,
2013-07-13 19:57:00,93.1,53.8,29.81,North,0,0.0,0.0,27,0.00,,,0.00,WUHU216HW,2013-07-14 02:57:00,
2013-07-13 20:02:00,92.5,54.5,29.81,North,0,0.0,0.0,28,0.00,,,0.00,WUHU216HW,2013-07-14 03:02:00,
2013-07-13 20:07:00,91.8,55.0,29.81,North,0,0.0,0.0,29,0.00,,,0.00,WUHU216HW,2013-07-14 03:07:00,
2013-07-13 20:12:00,91.4,54.7,29.81,North,0,0.0,0.0,29,0.00,,,0.00,WUHU216HW,2013-07-14 03:12:00,
2013-07-13 20:17:00,90.9,55.4,29.81,North,0,0.0,0.0,30,0.00,,,0.00,WUHU216HW,2013-07-14 03:17:00,
2013-07-13 20:22:00,90.4,55.6,29.81,North,0,0.0,0.0,31,0.00,,,0.00,WUHU216HW,2013-07-14 03:22:00,
2013-07-13 20:27:00,90.0,56.1,29.81,North,0,0.0,0.0,32,0.00,,,0.00,WUHU216HW,2013-07-14 03:27:00,
2013-07-13 20:32:00,89.5,56.4,29.80,North,0,0.0,0.0,33,0.00,,,0.00,WUHU216HW,2013-07-14 03:32:00,
2013-07-13 20:37:00,88.6,55.6,29.81,North,0,0.4,0.7,33,0.00,,,0.00,WUHU216HW,2013-07-14 03:37:00,
2013-07-13 20:42:00,88.0,54.4,29.81,North,0,0.0,0.0,32,0.00,,,0.00,WUHU216HW,2013-07-14 03:42:00,
2013-07-13 20:47:00,87.5,54.7,29.81,North,0,0.0,0.0,33,0.00,,,0.00,WUHU216HW,2013-07-14 03:47:00,
2013-07-13 20:52:00,86.8,54.1,29.81,North,0,0.0,0.0,33,0.00,,,0.00,WUHU216HW,2013-07-14 03:52:00,
2013-07-13 20:57:00,86.4,54.6,29.81,North,0,0.0,0.0,34,0.00,,,0.00,WUHU216HW,2013-07-14 03:57:00,
2013-07-13 21:02:00,85.9,54.9,29.81,North,0,0.0,0.0,35,0.00,,,0.00,WUHU216HW,2013-07-14 04:02:00,
2013-07-13 21:07:00,85.1,54.3,29.82,North,0,0.0,0.0,35,0.00,,,0.00,WUHU216HW,2013-07-14 04:07:00,
2013-07-13 21:12:00,84.4,54.5,29.82,North,0,0.0,0.0,36,0.00,,,0.00,WUHU216HW,2013-07-14 04:12:00,
2013-07-13 21:17:00,83.9,54.7,29.82,North,0,0.0,0.0,37,0.00,,,0.00,WUHU216HW,2013-07-14 04:17:00,
2013-07-13 21:22:00,83.5,55.2,29.82,North,0,0.0,0.0,38,0.00,,,0.00,WUHU216HW,2013-07-14 04:22:00,
2013-07-13 21:27:00,83.2,55.6,29.82,North,0,0.0,0.0,39,0.00,,,0.00,WUHU216HW,2013-07-14 04:27:00,
2013-07-13 21:32:00,82.6,56.0,29.82,North,0,0.0,0.0,40,0.00,,,0.00,WUHU216HW,2013-07-14 04:32:00,
2013-07-13 21:37:00,82.1,56.1,29.82,North,0,0.0,0.0,41,0.00,,,0.00,WUHU216HW,2013-07-14 04:37:00,
2013-07-13 21:42:00,81.5,56.3,29.82,North,0,0.0,0.0,42,0.00,,,0.00,WUHU216HW,2013-07-14 04:42:00,
2013-07-13 21:47:00,81.0,55.1,29.83,North,0,0.0,0.0,41,0.00,,,0.00,WUHU216HW,2013-07-14 04:47:00,
2013-07-13 21:52:00,80.6,55.5,29.82,North,0,0.0,0.0,42,0.00,,,0.00,WUHU216HW,2013-07-14 04:52:00,
2013-07-13 21:57:00,80.3,55.1,29.83,North,0,0.0,0.0,42,0.00,,,0.00,WUHU216HW,2013-07-14 04:57:00,
2013-07-13 22:02:00,79.9,54.7,29.83,North,0,0.0,0.0,42,0.00,,,0.00,WUHU216HW,2013-07-14 05:02:00,
2013-07-13 22:07:00,79.7,55.2,29.83,North,0,0.0,0.0,43,0.00,,,0.00,WUHU216HW,2013-07-14 05:07:00,
2013-07-13 22:12:00,79.4,55.5,29.83,North,0,0.0,0.0,44,0.00,,,0.00,WUHU216HW,2013-07-14 05:12:00,
2013-07-13 22:17:00,79.2,56.0,29.83,North,0,0.0,0.0,45,0.00,,,0.00,WUHU216HW,2013-07-14 05:17:00,
2013-07-13 22:22:00,78.5,56.5,29.83,North,0,0.0,0.0,47,0.00,,,0.00,WUHU216HW,2013-07-14 05:22:00,
2013-07-13 22:27:00,77.9,56.6,29.84,SE,135,0.2,0.2,48,0.00,,,0.00,WUHU216HW,2013-07-14 05:27:00,
2013-07-13 22:32:00,77.8,56.5,29.84,North,0,0.0,0.0,48,0.00,,,0.00,WUHU216HW,2013-07-14 05:32:00,
2013-07-13 22:37:00,77.9,56.6,29.84,North,0,0.0,0.0,48,0.00,,,0.00,WUHU216HW,2013-07-14 05:37:00,
2013-07-13 22:42:00,77.8,56.5,29.84,North,0,0.0,0.0,48,0.00,,,0.00,WUHU216HW,2013-07-14 05:42:00,
2013-07-13 22:47:00,77.8,56.5,29.84,North,0,0.0,0.0,48,0.00,,,0.00,WUHU216HW,2013-07-14 05:47:00,
2013-07-13 22:52:00,77.4,56.2,29.84,East,92,0.6,0.7,48,0.00,,,0.00,WUHU216HW,2013-07-14 05:52:00,
2013-07-13 22:57:00,76.5,56.6,29.84,ESE,121,0.6,0.7,50,0.00,,,0.00,WUHU216HW,2013-07-14 05:57:00,
2013-07-13 23:02:00,75.6,56.8,29.85,SE,126,0.5,1.1,52,0.00,,,0.00,WUHU216HW,2013-07-14 06:02:00,
2013-07-13 23:07:00,75.2,56.0,29.85,North,0,0.0,0.0,51,0.00,,,0.00,WUHU216HW,2013-07-14 06:07:00,
2013-07-13 23:12:00,75.1,56.3,29.85,North,0,0.0,0.0,52,0.00,,,0.00,WUHU216HW,2013-07-14 06:12:00,
2013-07-13 23:17:00,74.9,56.1,29.85,East,101,0.3,0.4,52,0.00,,,0.00,WUHU216HW,2013-07-14 06:17:00,
2013-07-13 23:22:00,74.7,55.5,29.85,ENE,73,0.3,0.4,51,0.00,,,0.00,WUHU216HW,2013-07-14 06:22:00,
2013-07-13 23:27:00,74.5,54.7,29.85,North,0,0.0,0.0,50,0.00,,,0.00,WUHU216HW,2013-07-14 06:27:00,
2013-07-13 23:32:00,74.5,54.1,29.85,North,0,0.0,0.0,49,0.00,,,0.00,WUHU216HW,2013-07-14 06:32:00,
2013-07-13 23:37:00,74.9,53.3,29.85,East,100,0.4,0.4,47,0.00,,,0.00,WUHU216HW,2013-07-14 06:37:00,
2013-07-13 23:42:00,75.2,53.0,29.85,SE,135,0.2,0.2,46,0.00,,,0.00,WUHU216HW,2013-07-14 06:42:00,
2013-07-13 23:47:00,75.4,53.2,29.85,North,0,0.0,0.0,46,0.00,,,0.00,WUHU216HW,2013-07-14 06:47:00,
2013-07-13 23:52:00,75.1,52.8,29.85,SE,135,0.4,0.4,46,0.00,,,0.00,WUHU216HW,2013-07-14 06:52:00,
2013-07-13 23:57:00,74.9,52.7,29.86,North,0,0.0,0.0,46,0.00,,,0.00,WUHU216HW,2013-07-14 06:57:00,